| time (UTC) | temp F | wind direction | speed knots | gust knots | rain 1hr in | rain 24hr in | rain mn in | humidity % | barometer mb |
| 20260503223440 | 69 | 248 | 7.0 | 13.0 | 0.00 | 0.00 | 0.00 | 59 | 1012.8 |
| 20260503222940 | 70 | 226 | 6.1 | 10.4 | 0.00 | 0.00 | 0.00 | 59 | 1012.9 |
| 20260503222440 | 70 | 223 | 5.2 | 9.6 | 0.00 | 0.00 | 0.00 | 60 | 1012.9 |
| 20260503221939 | 69 | 221 | 6.1 | 12.2 | 0.00 | 0.00 | 0.00 | 61 | 1012.9 |
| 20260503221439 | 69 | 219 | 6.1 | 12.2 | 0.00 | 0.00 | 0.00 | 60 | 1013.0 |
| 20260503220940 | 69 | 229 | 5.2 | 10.4 | 0.00 | 0.00 | 0.00 | 60 | 1013.0 |
| 20260503220438 | 69 | 223 | 6.1 | 12.2 | 0.00 | 0.00 | 0.00 | 61 | 1013.0 |
| 20260503215937 | 69 | 196 | 5.2 | 12.2 | 0.00 | 0.00 | 0.00 | 61 | 1013.1 |
| 20260503215438 | 69 | 226 | 5.2 | 8.7 | 0.00 | 0.00 | 0.00 | 60 | 1013.2 |
| 20260503214937 | 69 | 225 | 4.3 | 8.7 | 0.00 | 0.00 | 0.00 | 61 | 1013.3 |
| 20260503214438 | 69 | 237 | 5.2 | 10.4 | 0.00 | 0.00 | 0.00 | 63 | 1013.2 |
| 20260503213938 | 69 | 249 | 5.2 | 10.4 | 0.00 | 0.00 | 0.00 | 61 | 1013.3 |
| 20260503213438 | 70 | 227 | 4.3 | 9.6 | 0.00 | 0.00 | 0.00 | 60 | 1013.3 |
| 20260503212939 | 70 | 229 | 4.3 | 9.6 | 0.00 | 0.00 | 0.00 | 61 | 1013.4 |
| 20260503212437 | 69 | 237 | 3.5 | 8.7 | 0.00 | 0.00 | 0.00 | 61 | 1013.4 |
| 20260503211936 | 69 | 249 | 4.3 | 7.0 | 0.00 | 0.00 | 0.00 | 60 | 1013.4 |
| 20260503211436 | 70 | 252 | 4.3 | 7.8 | 0.00 | 0.00 | 0.00 | 60 | 1013.4 |
| 20260503210935 | 70 | 225 | 4.3 | 9.6 | 0.00 | 0.00 | 0.00 | 60 | 1013.4 |
| 20260503210436 | 70 | 214 | 2.6 | 9.6 | 0.00 | 0.00 | 0.00 | 61 | 1013.4 |
| 20260503205935 | 70 | 230 | 1.7 | 6.1 | 0.00 | 0.00 | 0.00 | 64 | 1013.5 |
| 20260503204933 | 69 | 227 | 3.5 | 7.8 | 0.00 | 0.00 | 0.00 | 62 | 1013.6 |
| 20260503203934 | 69 | 240 | 2.6 | 7.0 | 0.00 | 0.00 | 0.00 | 65 | 1013.6 |
| 20260503203702 | 69 | 237 | 2.6 | 6.1 | 0.00 | 0.00 | 0.00 | 67 | 1013.7 |
| 20260503202929 | 68 | 238 | 2.6 | 6.1 | 0.00 | 0.00 | 0.00 | 67 | 1013.8 |
| 20260503202430 | 67 | 256 | 2.6 | 7.0 | 0.00 | 0.00 | 0.00 | 70 | 1013.8 |
| 20260503201928 | 66 | 257 | 3.5 | 7.0 | 0.00 | 0.00 | 0.00 | 71 | 1013.9 |
| 20260503201426 | 65 | 207 | 3.5 | 7.0 | 0.00 | 0.00 | 0.00 | 72 | 1014.0 |
| 20260503200926 | 65 | 228 | 4.3 | 7.8 | 0.00 | 0.00 | 0.00 | 74 | 1014.1 |
| 20260503200421 | 64 | 225 | 4.3 | 7.8 | 0.00 | 0.00 | 0.00 | 74 | 1014.1 |
| 20260503195917 | 64 | 232 | 4.3 | 7.8 | 0.00 | 0.00 | 0.00 | 75 | 1014.2 |
| 20260503195417 | 63 | 244 | 3.5 | 7.0 | 0.00 | 0.00 | 0.00 | 78 | 1014.3 |
| 20260503194912 | 62 | 234 | 4.3 | 7.8 | 0.00 | 0.00 | 0.00 | 78 | 1014.3 |
| 20260503194413 | 62 | 231 | 5.2 | 7.8 | 0.00 | 0.00 | 0.00 | 79 | 1014.4 |
| 20260503193911 | 61 | 223 | 4.3 | 7.8 | 0.00 | 0.00 | 0.00 | 79 | 1014.5 |
| 20260503193412 | 62 | 237 | 3.5 | 7.8 | 0.00 | 0.00 | 0.00 | 80 | 1014.6 |
| 20260503193142 | 61 | 257 | 5.2 | 8.7 | 0.00 | 0.00 | 0.00 | 80 | 1014.6 |
| 20260503192409 | 61 | 222 | 6.1 | 8.7 | 0.00 | 0.00 | 0.00 | 80 | 1014.6 |
| 20260503191907 | 62 | 225 | 5.2 | 9.6 | 0.00 | 0.00 | 0.00 | 79 | 1014.7 |
| 20260503191639 | 62 | 210 | 4.3 | 9.6 | 0.00 | 0.00 | 0.00 | 79 | 1014.7 |
| 20260503190908 | 62 | 193 | 4.3 | 8.7 | 0.00 | 0.00 | 0.00 | 79 | 1014.8 |
| 20260503190408 | 62 | 223 | 4.3 | 7.8 | 0.00 | 0.00 | 0.00 | 79 | 1014.8 |
| 20260503190138 | 62 | 234 | 5.2 | 7.8 | 0.00 | 0.00 | 0.00 | 80 | 1014.8 |
| 20260503185407 | 62 | 226 | 4.3 | 7.8 | 0.00 | 0.00 | 0.00 | 80 | 1014.8 |
| 20260503184909 | 62 | 230 | 4.3 | 7.8 | 0.00 | 0.00 | 0.00 | 81 | 1014.8 |
| 20260503184638 | 62 | 238 | 3.5 | 9.6 | 0.00 | 0.00 | 0.00 | 82 | 1014.8 |
| 20260503183909 | 62 | 221 | 4.3 | 9.6 | 0.00 | 0.00 | 0.00 | 82 | 1014.9 |
| 20260503183407 | 61 | 219 | 4.3 | 8.7 | 0.00 | 0.00 | 0.00 | 83 | 1014.8 |
| 20260503182908 | 61 | 221 | 4.3 | 8.7 | 0.00 | 0.00 | 0.00 | 84 | 1014.9 |
| 20260503182404 | 61 | 221 | 4.3 | 8.7 | 0.00 | 0.00 | 0.00 | 84 | 1014.9 |
| 20260503181903 | 61 | 223 | 3.5 | 7.8 | 0.00 | 0.00 | 0.00 | 85 | 1014.9 |
| 20260503180859 | 60 | 223 | 5.2 | 8.7 | 0.00 | 0.00 | 0.00 | 85 | 1014.9 |
| 20260503180359 | 60 | 224 | 5.2 | 8.7 | 0.00 | 0.00 | 0.00 | 85 | 1014.9 |
| 20260503175900 | 60 | 223 | 5.2 | 8.7 | 0.00 | 0.00 | 0.00 | 85 | 1014.9 |
| 20260503175355 | 60 | 224 | 5.2 | 8.7 | 0.00 | 0.00 | 0.00 | 85 | 1014.8 |
| 20260503174851 | 60 | 224 | 5.2 | 8.7 | 0.00 | 0.00 | 0.00 | 85 | 1014.8 |
| 20260503174352 | 60 | 225 | 5.2 | 8.7 | 0.00 | 0.00 | 0.00 | 84 | 1014.7 |
| 20260503173852 | 60 | 211 | 4.3 | 7.8 | 0.00 | 0.00 | 0.00 | 84 | 1014.7 |
| 20260503173351 | 60 | 213 | 4.3 | 7.8 | 0.00 | 0.00 | 0.00 | 84 | 1014.7 |
| 20260503172851 | 60 | 215 | 4.3 | 7.8 | 0.00 | 0.00 | 0.00 | 83 | 1014.7 |
| 20260503172351 | 60 | 226 | 3.5 | 6.1 | 0.00 | 0.00 | 0.00 | 82 | 1014.6 |
| 20260503171853 | 60 | 232 | 3.5 | 5.2 | 0.00 | 0.00 | 0.00 | 81 | 1014.6 |
| 20260503171624 | 60 | 233 | 3.5 | 5.2 | 0.00 | 0.00 | 0.00 | 81 | 1014.5 |
| 20260503170852 | 60 | 234 | 3.5 | 5.2 | 0.00 | 0.00 | 0.00 | 80 | 1014.5 |
| 20260503170349 | 60 | 234 | 3.5 | 6.1 | 0.00 | 0.00 | 0.00 | 80 | 1014.5 |
| 20260503170120 | 60 | 235 | 2.6 | 6.1 | 0.00 | 0.00 | 0.00 | 80 | 1014.5 |
| 20260503150839 | 58 | 257 | 1.7 | 3.5 | 0.00 | 0.00 | 0.00 | 81 | 1014.1 |
| 20260503150341 | 58 | 257 | 2.6 | 3.5 | 0.00 | 0.00 | 0.00 | 81 | 1014.1 |
| 20260503131319 | 58 | 257 | 1.7 | 3.5 | 0.00 | 0.00 | 0.00 | 86 | 1013.4 |
| 20260503130816 | 58 | 257 | 1.7 | 3.5 | 0.00 | 0.00 | 0.00 | 86 | 1013.4 |
| 20260503130316 | 58 | 257 | 1.7 | 3.5 | 0.00 | 0.00 | 0.00 | 86 | 1013.4 |
| 20260503110758 | 58 | 257 | 2.6 | 6.1 | 0.00 | 0.00 | 0.00 | 86 | 1012.8 |
| 20260503110257 | 58 | 257 | 2.6 | 6.1 | 0.00 | 0.00 | 0.00 | 86 | 1012.7 |
| 20260503100250 | 58 | 257 | 3.5 | 6.1 | 0.00 | 0.00 | 0.00 | 85 | 1013.1 |
| 20260503090238 | 58 | 238 | 1.7 | 6.1 | 0.00 | 0.00 | 0.00 | 85 | 1013.2 |
| 20260503081227 | 58 | 238 | 0.9 | 3.5 | 0.00 | 0.00 | 0.00 | 83 | 1013.4 |
| 20260503080727 | 59 | 238 | 1.7 | 3.5 | 0.00 | 0.00 | 0.00 | 83 | 1013.4 |
| 20260503080225 | 59 | 238 | 1.7 | 4.3 | 0.00 | 0.00 | 0.00 | 83 | 1013.4 |
| 20260503072723 | 59 | 238 | 1.7 | 3.5 | 0.00 | 0.00 | 0.00 | 82 | 1013.2 |
| 20260503072222 | 59 | 238 | 1.7 | 4.3 | 0.00 | 0.00 | 0.00 | 82 | 1013.2 |
| 20260503071719 | 59 | 238 | 1.7 | 4.3 | 0.00 | 0.00 | 0.00 | 81 | 1013.1 |
| 20260503071221 | 59 | 238 | 1.7 | 3.5 | 0.00 | 0.00 | 0.00 | 81 | 1013.0 |
| 20260503070715 | 59 | 238 | 2.6 | 4.3 | 0.00 | 0.00 | 0.00 | 81 | 1013.1 |
| 20260503070212 | 59 | 238 | 2.6 | 5.2 | 0.00 | 0.00 | 0.00 | 80 | 1013.0 |
| 20260503060158 | 61 | 239 | 1.7 | 4.3 | 0.00 | 0.00 | 0.00 | 77 | 1012.9 |
| 20260503054655 | 61 | 238 | 2.6 | 7.0 | 0.00 | 0.00 | 0.00 | 77 | 1013.0 |
| 20260503054422 | 61 | 239 | 3.5 | 7.0 | 0.00 | 0.00 | 0.00 | 77 | 1013.1 |
| 20260503053650 | 62 | 232 | 3.5 | 7.0 | 0.00 | 0.00 | 0.00 | 77 | 1013.1 |
| 20260503053151 | 62 | 227 | 4.3 | 7.0 | 0.00 | 0.00 | 0.00 | 77 | 1013.1 |
| 20260503052920 | 62 | 231 | 4.3 | 7.0 | 0.00 | 0.00 | 0.00 | 76 | 1013.1 |
| 20260503052151 | 62 | 236 | 3.5 | 7.0 | 0.00 | 0.00 | 0.00 | 76 | 1013.1 |
| 20260503051650 | 62 | 235 | 4.3 | 7.0 | 0.00 | 0.00 | 0.00 | 76 | 1012.9 |
| 20260503051151 | 62 | 227 | 3.5 | 7.0 | 0.00 | 0.00 | 0.00 | 76 | 1012.9 |
| 20260503050650 | 62 | 228 | 3.5 | 7.0 | 0.00 | 0.00 | 0.00 | 76 | 1012.9 |
| 20260503050151 | 62 | 228 | 4.3 | 7.0 | 0.00 | 0.00 | 0.00 | 76 | 1012.9 |
| 20260503045645 | 63 | 228 | 3.5 | 6.1 | 0.00 | 0.00 | 0.00 | 75 | 1012.8 |
| 20260503045142 | 63 | 229 | 3.5 | 7.0 | 0.00 | 0.00 | 0.00 | 75 | 1012.7 |
| 20260503044641 | 63 | 228 | 3.5 | 7.0 | 0.00 | 0.00 | 0.00 | 75 | 1012.8 |
| 20260503044411 | 63 | 229 | 3.5 | 7.0 | 0.00 | 0.00 | 0.00 | 75 | 1012.7 |
| 20260503043640 | 63 | 230 | 4.3 | 7.8 | 0.00 | 0.00 | 0.00 | 75 | 1012.7 |
| 20260503043141 | 63 | 233 | 3.5 | 7.8 | 0.00 | 0.00 | 0.00 | 74 | 1012.6 |
| 20260503042638 | 64 | 229 | 3.5 | 5.2 | 0.00 | 0.00 | 0.00 | 74 | 1012.5 |
| 20260503042138 | 64 | 227 | 4.3 | 7.8 | 0.00 | 0.00 | 0.00 | 74 | 1012.3 |
| 20260503041638 | 64 | 227 | 4.3 | 7.8 | 0.00 | 0.00 | 0.00 | 73 | 1012.2 |
| 20260503041139 | 64 | 227 | 4.3 | 7.8 | 0.00 | 0.00 | 0.00 | 73 | 1012.1 |
| 20260503040632 | 64 | 225 | 5.2 | 8.7 | 0.00 | 0.00 | 0.00 | 73 | 1012.0 |
| 20260503040133 | 64 | 225 | 4.3 | 8.7 | 0.00 | 0.00 | 0.00 | 72 | 1012.0 |
| 20260503035633 | 65 | 227 | 4.3 | 7.0 | 0.00 | 0.00 | 0.00 | 72 | 1011.9 |
| 20260503035132 | 65 | 223 | 3.5 | 7.0 | 0.00 | 0.00 | 0.00 | 71 | 1011.8 |
| 20260503034633 | 65 | 225 | 3.5 | 6.1 | 0.00 | 0.00 | 0.00 | 71 | 1011.7 |
| 20260503034405 | 66 | 225 | 3.5 | 8.7 | 0.00 | 0.00 | 0.00 | 70 | 1011.6 |
| 20260503033631 | 66 | 225 | 3.5 | 8.7 | 0.00 | 0.00 | 0.00 | 70 | 1011.5 |
| 20260503033129 | 66 | 232 | 2.6 | 6.1 | 0.00 | 0.00 | 0.00 | 69 | 1011.4 |
| 20260503032626 | 67 | 224 | 4.3 | 7.8 | 0.00 | 0.00 | 0.00 | 69 | 1011.3 |
| 20260503032126 | 67 | 223 | 4.3 | 7.8 | 0.00 | 0.00 | 0.00 | 68 | 1011.2 |
| 20260503031625 | 67 | 222 | 3.5 | 9.6 | 0.00 | 0.00 | 0.00 | 68 | 1011.2 |
| 20260503031124 | 67 | 222 | 4.3 | 9.6 | 0.00 | 0.00 | 0.00 | 67 | 1011.1 |
| 20260503030624 | 68 | 223 | 5.2 | 9.6 | 0.00 | 0.00 | 0.00 | 67 | 1011.0 |
| 20260503030120 | 68 | 229 | 5.2 | 9.6 | 0.00 | 0.00 | 0.00 | 66 | 1010.9 |
| 20260503025621 | 69 | 232 | 4.3 | 8.7 | 0.00 | 0.00 | 0.00 | 65 | 1010.8 |
| 20260503025120 | 69 | 239 | 4.3 | 8.7 | 0.00 | 0.00 | 0.00 | 65 | 1010.6 |
| 20260503024622 | 69 | 221 | 5.2 | 8.7 | 0.00 | 0.00 | 0.00 | 64 | 1010.5 |
| 20260503024121 | 70 | 223 | 5.2 | 9.6 | 0.00 | 0.00 | 0.00 | 64 | 1010.4 |
| 20260503023618 | 70 | 236 | 5.2 | 9.6 | 0.00 | 0.00 | 0.00 | 63 | 1010.3 |
| 20260503023118 | 71 | 223 | 5.2 | 9.6 | 0.00 | 0.00 | 0.00 | 63 | 1010.1 |
| 20260503022619 | 71 | 221 | 5.2 | 9.6 | 0.00 | 0.00 | 0.00 | 62 | 1010.1 |
| 20260503022117 | 72 | 221 | 4.3 | 7.8 | 0.00 | 0.00 | 0.00 | 61 | 1010.0 |
| 20260503021617 | 72 | 221 | 4.3 | 7.0 | 0.00 | 0.00 | 0.00 | 60 | 1010.1 |
| 20260503021116 | 73 | 221 | 4.3 | 7.0 | 0.00 | 0.00 | 0.00 | 59 | 1010.0 |
| 20260503020616 | 73 | 221 | 4.3 | 7.8 | 0.00 | 0.00 | 0.00 | 59 | 1010.0 |
| 20260503020116 | 74 | 223 | 5.2 | 8.7 | 0.00 | 0.00 | 0.00 | 58 | 1010.1 |
| 20260503015617 | 74 | 222 | 4.3 | 8.7 | 0.00 | 0.00 | 0.00 | 58 | 1010.1 |
| 20260503015345 | 74 | 220 | 4.3 | 8.7 | 0.00 | 0.00 | 0.00 | 57 | 1010.0 |
| 20260503014614 | 74 | 232 | 4.3 | 8.7 | 0.00 | 0.00 | 0.00 | 57 | 1009.9 |
| 20260503014114 | 75 | 224 | 4.3 | 8.7 | 0.00 | 0.00 | 0.00 | 57 | 1009.9 |
| 20260503013615 | 75 | 227 | 5.2 | 11.3 | 0.00 | 0.00 | 0.00 | 57 | 1009.9 |
| 20260503013346 | 75 | 223 | 6.1 | 11.3 | 0.00 | 0.00 | 0.00 | 58 | 1010.0 |
| 20260503012613 | 75 | 225 | 6.1 | 11.3 | 0.00 | 0.00 | 0.00 | 57 | 1010.0 |
| 20260503012110 | 75 | 219 | 6.1 | 10.4 | 0.00 | 0.00 | 0.00 | 56 | 1010.0 |
| 20260503011611 | 75 | 224 | 7.0 | 12.2 | 0.00 | 0.00 | 0.00 | 56 | 1010.0 |
| 20260503011108 | 76 | 219 | 7.0 | 12.2 | 0.00 | 0.00 | 0.00 | 56 | 1009.9 |
| 20260503010609 | 76 | 229 | 7.0 | 11.3 | 0.00 | 0.00 | 0.00 | 55 | 1010.0 |
| 20260503010109 | 76 | 236 | 7.0 | 11.3 | 0.00 | 0.00 | 0.00 | 55 | 1009.9 |
| 20260503005605 | 76 | 223 | 7.0 | 13.9 | 0.00 | 0.00 | 0.00 | 55 | 1009.9 |
| 20260503005105 | 77 | 218 | 7.0 | 13.9 | 0.00 | 0.00 | 0.00 | 54 | 1009.9 |
| 20260503004606 | 77 | 219 | 7.8 | 13.0 | 0.00 | 0.00 | 0.00 | 54 | 1009.9 |
| 20260503004104 | 78 | 221 | 7.8 | 13.0 | 0.00 | 0.00 | 0.00 | 53 | 1009.9 |
| 20260503003102 | 79 | 203 | 7.0 | 13.0 | 0.00 | 0.00 | 0.00 | 53 | 1009.9 |
| 20260503002603 | 79 | 219 | 7.0 | 13.0 | 0.00 | 0.00 | 0.00 | 52 | 1010.0 |
| 20260503002103 | 79 | 223 | 7.0 | 12.2 | 0.00 | 0.00 | 0.00 | 51 | 1009.9 |
| 20260503001603 | 80 | 224 | 6.1 | 10.4 | 0.00 | 0.00 | 0.00 | 51 | 1009.8 |
| 20260503001102 | 80 | 213 | 7.0 | 10.4 | 0.00 | 0.00 | 0.00 | 52 | 1009.9 |
| 20260503000604 | 80 | 219 | 7.0 | 10.4 | 0.00 | 0.00 | 0.00 | 51 | 1009.8 |
| 20260503000104 | 80 | 230 | 6.1 | 10.4 | 0.00 | 0.00 | 0.00 | 50 | 1009.8 |
| 20260502235603 | 81 | 227 | 6.1 | 11.3 | 0.00 | 0.00 | 0.00 | 49 | 1009.8 |
| 20260502235104 | 81 | 218 | 6.1 | 11.3 | 0.00 | 0.00 | 0.00 | 47 | 1009.7 |
| 20260502234833 | 82 | 243 | 5.2 | 10.4 | 0.00 | 0.00 | 0.00 | 47 | 1009.7 |
| 20260502234336 | 81 | 221 | 6.1 | 12.2 | 0.00 | 0.00 | 0.00 | 48 | 1009.8 |
| 20260502233559 | 81 | 214 | 6.1 | 12.2 | 0.00 | 0.00 | 0.00 | 47 | 1009.8 |
| 20260502233328 | 81 | 208 | 7.0 | 12.2 | 0.00 | 0.00 | 0.00 | 47 | 1009.8 |
| 20260502232556 | 81 | 229 | 7.0 | 12.2 | 0.00 | 0.00 | 0.00 | 46 | 1009.9 |
| 20260502232056 | 81 | 226 | 6.1 | 11.3 | 0.00 | 0.00 | 0.00 | 46 | 1010.0 |
| 20260502231557 | 82 | 231 | 6.1 | 13.0 | 0.00 | 0.00 | 0.00 | 47 | 1009.9 |
| 20260502231053 | 81 | 254 | 7.8 | 13.0 | 0.00 | 0.00 | 0.00 | 47 | 1009.9 |
| 20260502230551 | 81 | 232 | 7.0 | 13.0 | 0.00 | 0.00 | 0.00 | 45 | 1010.1 |
| 20260502230050 | 82 | 267 | 7.0 | 13.9 | 0.00 | 0.00 | 0.00 | 47 | 1010.1 |
| 20260502225551 | 81 | 225 | 7.0 | 13.9 | 0.00 | 0.00 | 0.00 | 47 | 1010.1 |
| 20260502225050 | 82 | 220 | 7.0 | 12.2 | 0.00 | 0.00 | 0.00 | 47 | 1010.2 |
| 20260502224549 | 83 | 269 | 6.1 | 12.2 | 0.00 | 0.00 | 0.00 | 45 | 1010.3 |
| 20260502224049 | 83 | 219 | 6.1 | 10.4 | 0.00 | 0.00 | 0.00 | 44 | 1010.4 |